Regional Weather Roundup
Issued by NWS Upton, NY

Home | Current Version | Previous Version | Text Only | Print | Product List | Glossary On
Versions: 1 2 3 4 5 6 7 8 9 10 11 12 13 14 15 16 17 18 19 20 21 22 23 24 25 26 27 28 29 30 31 32 33 34 35 36 37 38 39 40 41 42 43 44 45 46 47 48 49 50
000
ASUS41 KOKX 200708
RWROKX

REGIONAL WEATHER ROUNDUP
NATIONAL WEATHER SERVICE NEW YORK NY
300 AM EDT FRI OCT 20 2017

NOTE: "FAIR" INDICATES FEW OR NO CLOUDS BELOW 12,000 FEET WITH NO
SIGNIFICANT WEATHER AND/OR OBSTRUCTIONS TO VISIBILITY.

NYZ071-072-176-178-NJZ106-104-200800-
NEW YORK CITY METRO AREA

CITY           SKY/WX    TMP DP  RH WIND       PRES   REMARKS
Central Park   FAIR      60  47  61 MISG      30.10S
Bronx Bot Gard   N/A     61  45  55 W8        30.08F
LaGuardia APRT FAIR      64  47  53 W12       30.06F
Kennedy INTL   FAIR      58  50  75 W6        30.08F
Breezy Point     N/A     59 N/A N/A W10G18      N/A
Newark/Liberty FAIR      59  47  64 W13       30.08S
Teterboro      FAIR      55  47  74 CALM      30.07S
$$

NYZ177-179-078>081-200800-
LONG ISLAND NEW YORK

CITY           SKY/WX    TMP DP  RH WIND       PRES   REMARKS
Jones Beach      N/A     59 N/A N/A W5          N/A
Matinecock PT    N/A     63 N/A N/A W16         N/A
Farmingdale    FAIR      57  49  74 W8        30.07S
MacArthur/ISP  FAIR      55  50  83 W6        30.06S
Shirley        FAIR      59  51  75 W6        30.06S
Mt Sinai Harb    N/A    N/A N/A N/A SW5G10      N/A
Westhampton    FAIR      57  49  74 W7        30.06F
East Hampton   FAIR      55  51  86 W3        30.04F
Montauk          N/A     61  53  75 W8        30.04F
$$

NYZ052-065-067-200800-
HUDSON VALLEY

CITY           SKY/WX    TMP DP  RH WIND       PRES   REMARKS
White Plains   FAIR      57  46  66 W5        30.06F
Larchmont Harb   N/A     61 N/A N/A W8          N/A
Croton On Huds   N/A     57 N/A N/A E3          N/A
Newburgh       PTCLDY    54  48  82 W7        30.08F
Montgomery     FAIR      46  44  93 SW9       30.07S
Poughkeepsie   FAIR      50  44  80 CALM      30.05S
Albany         MOCLDY    59  46  62 W13       30.06R
$$

NJZ001-105-106-008-010-013-015-019>022-104-200800-
NEW JERSEY

CITY           SKY/WX    TMP DP  RH WIND       PRES   REMARKS
Newark/Liberty FAIR      59  47  64 W13       30.08S
Teterboro      FAIR      55  47  74 CALM      30.07S
Caldwell       FAIR      53  49  86 CALM      30.09S
Somerville     FAIR      44  44 100 CALM      30.09S
Linden         FAIR      58  47  67 W7        30.09S
Perth Amboy      N/A     55 N/A N/A W8          N/A
Sussex         FAIR      46  45  96 CALM      30.10S
Andover          N/A     47  46  97 S3        30.10F
Trenton        FAIR      58  48  69 CALM      30.11S
Millville      FAIR      49  48  97 W3        30.14S
Atlantic City  FAIR      54  52  93 CALM      30.13S
Wrightstown    FAIR      54  50  86 W7        30.09S
Toms River       N/A     54  50  86 W8        30.11F
Belmar         FAIR      54  49  83 SW6       30.11S
$$

PAZ047>061-062-071-200800-
EASTERN PENNSYLVANIA

CITY           SKY/WX    TMP DP  RH WIND       PRES   REMARKS
Philadelphia   FAIR      56  53  90 W6        30.13F
Allentown      FAIR      50  45  83 SW7       30.11F
Scranton       FAIR      55  45  68 SW6       30.13S
$$

CTZ002-004>006-009-010-012-RIZ004-006-007-MAZ004-011-015-200800-
SOUTHERN NEW ENGLAND
 IN CT

CITY           SKY/WX    TMP DP  RH WIND       PRES   REMARKS
Bradley INTL   MOCLDY    54  47  77 S5        30.03R
Hartford       FAIR      55  50  83 S3        30.03F
Danbury        FAIR      54  46  74 W8        30.06F
Wtrbury/Oxford FAIR      51  46  83 CALM      30.05F
Norwalk Harbor   N/A     59 N/A N/A W12         N/A
Bridgeport     FAIR      56  47  71 W3        30.05S
Meriden        FAIR      49  48  97 CALM      30.04S
New Haven      FAIR      60  48  64 CALM      30.04F
Chester        FAIR      57  46  67 W6        30.04S
Groton         FAIR      60  53  77 W6        30.02F
Wilimantic     FAIR      50  48  93 CALM      30.03F

 IN RI

CITY           SKY/WX    TMP DP  RH WIND       PRES   REMARKS
Providence     FAIR      58  54  86 W7        30.01F
Block Island   FAIR      62  53  72 W13       30.03F
Westerly       FAIR      63  55  75 W6        30.03F
 IN MA

CITY           SKY/WX    TMP DP  RH WIND       PRES   REMARKS
Boston         FAIR      58  50  75 SW13      29.97F
Worcester      FAIR      56  43  61 W15G24    29.99F
Westfield      FAIR      57  46  66 W8        30.02S
Provincetown   FAIR      59  55  87 SW14      29.98F
Nantucket      FAIR      60  60 100 SW15      30.02F
$$

ANZ330-335-338-340-345-350-353-355-200800-
COASTAL MARINE OBSERVATIONS


STATION/POSITION TIME  SKY/WX   TEMP    WIND        PRES    VSBY  WAVE
                                AIR SEA DIR/SP/G                  HT/PER
                 (UTC)          (F)     (DEG/KT/KT) (MB)    (MI)  (FT/S)
NY HARB ENTRANCE 0550            63 65  260/ 17/ 21 1017.8          3/ 9
20 S FIRE ISLAND 0550            64 64  250/ 17/ 21 1018.7          4/ 5
GREAT SOUTH BAY  0615            61 62  260/ 12/ 16   N/A
15 E BARNEGAT LI NOT AVBL
HUDSON CANYON    0550            65 65  250/ 14/ 16 1019.3          4/ 9
KINGS POINT      0648               65  340/  5/  7 1018.9
EXECUTION ROCKS  0645            63     270/ 10/ 12   N/A
WESTERN LI SOUND 0549            64     280/ 12/ 16   N/A           1/ 2
CENTRAL LI SOUND 0630            65     250/ 16/ 19   N/A           3
EASTERN LI SOUND NOT AVBL
ROBBINS REEF     0648                   270/ 11/ 13 1019.0
$$


>>>>>>>>>>>>>>>>>>>>>>>>>>>> KEY <<<<<<<<<<<<<<<<<<<<<<<<<<<
>                                                          <
>     SKY/WX - Sky Condition/Present Weather               <
>     TMP    - Temperature in Fahrenheit                   <
>     DP     - Dew Point in Fahrenheit                     <
>     RH     - Relative Humidity in Percent                <
>     WIND   - Direction (from) and Speed in MPH           <
>     PRES   - Mean Sea Level Pressure (inches of Hg)      <
>     WCI    - Wind Chill Index                            <
>     VSB    - VISIBILITY IN MILES                         <
>     HX     - HEAT INDEX                                  <
>     TC     - TEMPERATURE IN CELSIUS                      <
>     VRB    - VARIABLE WIND DIRECTION                     <
>                                                          <
>>>>>>>>>>>>>>>>>>>>>>>>>>>> KEY <<<<<<<<<<<<<<<<<<<<<<<<<<<



USA.gov is the U.S. government's official web portal to all federal, state and local government web resources and services.